Cheboygan, MI

12:13 PM EST on November 22, 2017 (GMT -0500)
Cheboygan

Weather History for KSLH - June, 2013

Change the Weather History Date:

Wednesday, June 12, 2013

  Actual Average (KMCD) Record (KMCD)
Temperature  
Mean Temperature 62 °F -  
Max Temperature 73 °F 64 °F 82 °F (1983)
Min Temperature 50 °F 49 °F 34 °F (1980)
Degree Days  
Heating Degree Days 4    
Growing Degree Days 12 (Base 50)    
Moisture  
Dew Point 53 °F    
Average Humidity 76    
Maximum Humidity 97    
Minimum Humidity 44    
Precipitation  
Precipitation 0.00 in - - ()
Sea Level Pressure  
Sea Level Pressure 29.86 in    
Wind  
Wind Speed 1 mph (NE)    
Max Wind Speed 8 mph    
Max Gust Speed -    
Visibility 6 miles    
Events Fog    
Averages and records for this station are not official NWS values.
T = Trace of Precipitation, MM = Missing Value Source: NWS Daily Summary

Daily Weather History Graph

Daily Weather History Graph

Search for Another Location

Airport or City:

Trip Planner

Search our weather history database for the weather conditions in past years. The results will help you decide how hot, cold, wet, or windy it might be!

Date:

Astronomy

Jun. 12, 2013 Rise Set
Actual Time 5:48 AM EDT 9:27 PM EDT
Civil Twilight 5:10 AM EDT 10:05 PM EDT
Nautical Twilight 4:19 AM EDT 10:56 PM EDT
Astronomical Twilight 3:11 AM EDT 12:05 AM EDT
Moon 9:35 AM EDT (6/12) 11:52 PM EDT (6/12)
Length of Visible Light 16h 55m
Length of Day
15h 39m
Waxing Crescent, 14% of the Moon is Illuminated
Jun 12
Waxing Crescent
Jun 16
First Quarter
Jun 23
Full
Jun 30
Last Quarter
Jul 8
New

Hourly Weather History & Observations

Time (EDT) Temp. Dew Point Humidity Pressure Visibility Wind Dir Wind Speed Gust Speed Precip Events Conditions
12:15 AM 53.8 °F 52.5 °F 95% 29.88 in 0.2 mi Calm Calm - N/A Fog Fog
12:35 AM 53.6 °F 52.3 °F 95% 29.88 in 0.2 mi Calm Calm - N/A Fog Fog
12:55 AM 53.6 °F 52.5 °F 96% 29.88 in 0.5 mi Calm Calm - N/A Fog Fog
1:15 AM 54.3 °F 52.9 °F 95% 29.88 in 0.2 mi Calm Calm - N/A Fog Fog
1:35 AM 53.8 °F 52.7 °F 96% 29.89 in 0.2 mi Calm Calm - N/A   Drizzle
1:56 AM 54.7 °F 53.4 °F 96% 29.88 in 1.0 mi Calm Calm - N/A   Overcast
2:15 AM 54.5 °F 53.1 °F 95% 29.88 in 1.0 mi Calm Calm - N/A   Overcast
2:35 AM 53.6 °F 52.2 °F 95% 29.88 in 0.8 mi Calm Calm - N/A   Overcast
2:56 AM 52.0 °F 50.7 °F 95% 29.88 in 1.0 mi Calm Calm - N/A   Scattered Clouds
3:15 AM 52.7 °F 51.3 °F 95% 29.88 in 1.8 mi Calm Calm - N/A   Mist
3:35 AM 51.4 °F 50.2 °F 95% 29.87 in 2.0 mi Calm Calm - N/A   Mostly Cloudy
3:56 AM 50.4 °F 48.9 °F 95% 29.87 in 0.2 mi Calm Calm - N/A Fog Fog
4:15 AM 52.0 °F 50.7 °F 95% 29.87 in 0.2 mi Calm Calm - N/A Fog Fog
4:35 AM 52.0 °F 50.7 °F 95% 29.88 in 0.2 mi Calm Calm - N/A Fog Fog
4:56 AM 52.9 °F 51.6 °F 95% 29.88 in 0.2 mi Calm Calm - N/A Fog Fog
5:15 AM 52.5 °F 51.3 °F 95% 29.88 in 0.2 mi Calm Calm - N/A Fog Fog
5:35 AM 52.7 °F 51.3 °F 95% 29.90 in 0.2 mi Calm Calm - N/A Fog Fog
5:55 AM 52.7 °F 51.4 °F 95% 29.90 in 0.2 mi Calm Calm - N/A Fog Fog
6:15 AM 52.3 °F 51.1 °F 95% 29.90 in 0.2 mi Calm Calm - N/A Fog Fog
6:35 AM 52.9 °F 51.8 °F 96% 29.91 in 0.2 mi Calm Calm - N/A Fog Fog
6:55 AM 53.2 °F 52.0 °F 95% 29.91 in 0.2 mi Calm Calm - N/A Fog Fog
7:15 AM 53.8 °F 52.5 °F 95% 29.92 in 0.2 mi Calm Calm - N/A Fog Fog
7:35 AM 54.5 °F 53.4 °F 96% 29.91 in 0.2 mi Calm Calm - N/A Fog Fog
7:55 AM 54.0 °F 52.9 °F 96% 29.91 in 0.2 mi Calm Calm - N/A Fog Fog
8:16 AM 54.7 °F 53.6 °F 96% 29.90 in 0.2 mi Calm Calm - N/A Fog Fog
8:36 AM 55.4 °F 54.3 °F 96% 29.91 in 0.2 mi Calm Calm - N/A Fog Fog
8:55 AM 56.1 °F 55.0 °F 96% 29.92 in 0.2 mi Calm Calm - N/A Fog Fog
9:15 AM 57.0 °F 55.8 °F 96% 29.92 in 0.2 mi SW 3.5 mph - N/A Fog Fog
9:35 AM 57.7 °F 56.7 °F 96% 29.92 in 0.2 mi South 3.5 mph - N/A Fog Fog
9:55 AM 58.1 °F 57.2 °F 97% 29.91 in 0.8 mi Calm Calm - N/A   Overcast
10:15 AM 59.5 °F 58.6 °F 97% 29.90 in 5.0 mi SW 3.5 mph - N/A   Overcast
10:35 AM 61.7 °F 60.8 °F 97% 29.90 in 10.0 mi South 4.6 mph - N/A   Mostly Cloudy
10:56 AM 63.7 °F 62.2 °F 95% 29.89 in 10.0 mi ESE 3.5 mph - N/A   Scattered Clouds
11:15 AM 64.6 °F 62.4 °F 93% 29.88 in 10.0 mi Calm Calm - N/A   Clear
11:35 AM 66.4 °F 63.3 °F 90% 29.88 in 10.0 mi Calm Calm - N/A   Clear
11:55 AM 69.8 °F 57.2 °F 64% 29.87 in 10.0 mi East 4.6 mph - N/A   Clear
12:15 PM 71.1 °F 55.2 °F 57% 29.88 in 10.0 mi Calm Calm - N/A   Clear
12:35 PM 72.9 °F 54.1 °F 52% 29.88 in 10.0 mi Calm Calm - N/A   Clear
12:55 PM 73.0 °F 56.7 °F 56% 29.87 in 10.0 mi ENE 6.9 mph - N/A   Clear
1:16 PM 72.7 °F 54.9 °F 53% 29.86 in 10.0 mi NE 8.1 mph - N/A   Clear
1:35 PM 71.2 °F 54.5 °F 55% 29.87 in 10.0 mi ENE 6.9 mph - N/A   Clear
1:55 PM 71.2 °F 54.3 °F 55% 29.86 in 10.0 mi ENE 6.9 mph - N/A   Clear
2:16 PM 72.5 °F 54.7 °F 53% 29.86 in 10.0 mi ENE 6.9 mph - N/A   Clear
2:35 PM 72.5 °F 54.0 °F 52% 29.86 in 10.0 mi ENE 4.6 mph - N/A   Clear
2:55 PM 72.1 °F 52.7 °F 50% 29.84 in 10.0 mi NE 5.8 mph - N/A   Clear
3:16 PM 73.4 °F 54.3 °F 51% 29.84 in 10.0 mi ENE 6.9 mph - N/A   Clear
3:35 PM 73.2 °F 53.6 °F 50% 29.84 in 10.0 mi ENE 4.6 mph - N/A   Clear
3:51 PM 71.8 °F 52.9 °F 51% 29.83 in 10.0 mi ENE 5.8 mph - N/A   Clear
4:15 PM 72.5 °F 53.4 °F 51% 29.84 in 10.0 mi NNE 4.6 mph - N/A   Clear
4:38 PM 71.6 °F 51.8 °F 50% 29.84 in 10.0 mi North 6.9 mph - N/A   Clear
4:49 PM 70.9 °F 53.2 °F 54% 29.84 in 10.0 mi North 8.1 mph - N/A   Clear
5:15 PM 71.6 °F 54.9 °F 55% 29.85 in 10.0 mi ENE 5.8 mph - N/A   Clear
5:35 PM 71.8 °F 54.7 °F 55% 29.84 in 10.0 mi ENE 5.8 mph - N/A   Clear
5:55 PM 73.8 °F 51.4 °F 45% 29.83 in 10.0 mi North 5.8 mph - N/A   Clear
6:16 PM 72.5 °F 52.3 °F 49% 29.83 in 10.0 mi NE 4.6 mph - N/A   Clear
6:35 PM 73.2 °F 50.2 °F 44% 29.82 in 10.0 mi NNE 3.5 mph - N/A   Clear
6:55 PM 73.4 °F 50.4 °F 44% 29.81 in 10.0 mi North 4.6 mph - N/A   Clear
7:15 PM 70.7 °F 55.0 °F 58% 29.80 in 10.0 mi ENE 4.6 mph - N/A   Clear
7:35 PM 70.2 °F 52.2 °F 53% 29.80 in 10.0 mi Calm Calm - N/A   Clear
7:56 PM 70.0 °F 52.2 °F 53% 29.80 in 10.0 mi Calm Calm - N/A   Clear
8:14 PM 69.3 °F 51.4 °F 53% 29.79 in 10.0 mi Calm Calm - N/A   Clear
8:35 PM 69.8 °F 49.1 °F 48% 29.79 in 10.0 mi Calm Calm - N/A   Clear
8:55 PM 67.5 °F 53.1 °F 60% 29.80 in 10.0 mi Calm Calm - N/A   Clear
9:13 PM 65.1 °F 53.6 °F 66% 29.80 in 10.0 mi Calm Calm - N/A   Clear
9:36 PM 63.1 °F 52.5 °F 68% 29.79 in 10.0 mi Calm Calm - N/A   Clear
9:55 PM 62.4 °F 51.1 °F 66% 29.79 in 10.0 mi Calm Calm - N/A   Scattered Clouds
10:15 PM 59.5 °F 52.3 °F 77% 29.79 in 10.0 mi Calm Calm - N/A   Scattered Clouds
10:35 PM 59.4 °F 51.6 °F 76% 29.79 in 10.0 mi Calm Calm - N/A   Clear
10:55 PM 59.5 °F 51.1 °F 74% 29.79 in 10.0 mi West 3.5 mph - N/A   Scattered Clouds
11:07 PM 57.9 °F 50.4 °F 76% 29.78 in 10.0 mi Calm Calm - N/A   Scattered Clouds
11:35 PM 57.0 °F 50.7 °F 79% 29.77 in 10.0 mi Calm Calm - N/A   Clear
11:55 PM 59.4 °F 51.3 °F 75% 29.77 in 10.0 mi West 3.5 mph - N/A   Clear